TimeCST,TemperatureF,Dew PointF,Humidity,Sea Level PressureIn,VisibilityMPH,Wind Direction,Wind SpeedMPH,Gust SpeedMPH,PrecipitationIn,Events,Conditions,WindDirDegrees,DateUTC
12:15 AM,21.6,12.6,68,29.95,10.0,SSW,3.5,-,N/A,,Overcast,210,2013-01-16 06:15:00
12:35 AM,22.6,13.1,67,29.95,10.0,WSW,5.8,-,N/A,,Overcast,240,2013-01-16 06:35:00
12:55 AM,23.0,13.5,67,29.94,10.0,Calm,Calm,-,N/A,,Overcast,0,2013-01-16 06:55:00
1:15 AM,23.9,14.4,67,29.93,10.0,West,3.5,-,N/A,,Overcast,260,2013-01-16 07:15:00
1:35 AM,24.6,14.9,67,29.92,10.0,West,3.5,-,N/A,,Overcast,270,2013-01-16 07:35:00
1:55 AM,25.9,16.7,68,29.92,10.0,West,3.5,-,N/A,,Overcast,260,2013-01-16 07:55:00
2:35 AM,27.5,19.2,71,29.91,10.0,West,4.6,-,N/A,,Overcast,280,2013-01-16 08:35:00
2:55 AM,28.8,20.3,71,29.91,10.0,West,6.9,-,N/A,,Overcast,270,2013-01-16 08:55:00
3:15 AM,29.3,21.2,72,29.90,10.0,WNW,3.5,-,N/A,,Overcast,290,2013-01-16 09:15:00
3:35 AM,29.3,22.1,75,29.90,10.0,West,4.6,-,N/A,,Overcast,260,2013-01-16 09:35:00
3:55 AM,29.8,23.0,76,29.89,10.0,West,3.5,-,N/A,,Overcast,260,2013-01-16 09:55:00
4:35 AM,30.9,24.6,77,29.89,10.0,Calm,Calm,-,N/A,,Overcast,0,2013-01-16 10:35:00
4:55 AM,32.2,25.9,78,29.88,10.0,WNW,4.6,-,N/A,,Overcast,300,2013-01-16 10:55:00
5:15 AM,33.1,26.6,77,29.88,10.0,NW,3.5,-,N/A,,Overcast,310,2013-01-16 11:15:00
5:35 AM,34.2,27.5,77,29.88,10.0,NW,3.5,-,N/A,,Overcast,320,2013-01-16 11:35:00
5:55 AM,35.6,28.8,76,29.89,10.0,NW,4.6,-,N/A,,Overcast,320,2013-01-16 11:55:00
6:35 AM,40.1,30.2,68,29.90,10.0,NW,10.4,-,N/A,,Overcast,310,2013-01-16 12:35:00
6:55 AM,40.3,30.2,67,29.91,10.0,NW,10.4,-,N/A,,Overcast,310,2013-01-16 12:55:00
7:15 AM,39.0,29.3,68,29.91,10.0,NW,8.1,-,N/A,,Mostly Cloudy,310,2013-01-16 13:15:00
7:35 AM,35.2,28.2,76,29.92,10.0,WNW,5.8,-,N/A,,Scattered Clouds,290,2013-01-16 13:35:00
7:55 AM,33.8,27.5,78,29.93,10.0,NW,5.8,-,N/A,,Clear,310,2013-01-16 13:55:00
8:15 AM,35.2,28.6,77,29.93,10.0,NW,8.1,-,N/A,,Clear,310,2013-01-16 14:15:00
8:35 AM,37.6,29.1,72,29.93,10.0,NW,10.4,-,N/A,,Clear,310,2013-01-16 14:35:00
8:55 AM,39.0,29.3,68,29.94,10.0,NW,10.4,16.1,N/A,,Clear,320,2013-01-16 14:55:00
9:15 AM,40.6,29.7,65,29.95,10.0,NW,11.5,-,N/A,,Clear,310,2013-01-16 15:15:00
9:35 AM,41.4,29.3,62,29.96,10.0,WNW,16.1,23.0,N/A,,Clear,300,2013-01-16 15:35:00
9:55 AM,42.3,29.3,60,29.96,10.0,WNW,16.1,19.6,N/A,,Clear,300,2013-01-16 15:55:00
10:15 AM,43.9,29.3,57,29.96,10.0,WNW,15.0,-,N/A,,Clear,300,2013-01-16 16:15:00
10:35 AM,45.7,28.4,51,29.97,10.0,NW,15.0,23.0,N/A,,Clear,310,2013-01-16 16:35:00
10:55 AM,46.9,27.7,47,29.97,10.0,WNW,16.1,27.6,N/A,,Clear,300,2013-01-16 16:55:00
11:15 AM,48.6,27.0,43,29.97,10.0,NW,15.0,24.2,N/A,,Clear,310,2013-01-16 17:15:00
11:35 AM,49.8,27.0,41,29.97,10.0,WNW,16.1,26.5,N/A,,Clear,300,2013-01-16 17:35:00
11:55 AM,50.4,26.2,39,29.96,10.0,NW,16.1,24.2,N/A,,Clear,310,2013-01-16 17:55:00
12:15 PM,51.8,25.0,35,29.96,10.0,NW,21.9,27.6,N/A,,Clear,310,2013-01-16 18:15:00
12:35 PM,52.3,24.1,33,29.95,10.0,NW,20.7,28.8,N/A,,Clear,310,2013-01-16 18:35:00
12:55 PM,53.6,23.9,32,29.93,10.0,NW,18.4,25.3,N/A,,Clear,320,2013-01-16 18:55:00
1:15 PM,54.1,24.1,31,29.94,10.0,NW,23.0,27.6,N/A,,Clear,320,2013-01-16 19:15:00
1:35 PM,54.0,24.3,32,29.94,10.0,NW,21.9,28.8,N/A,,Clear,310,2013-01-16 19:35:00
2:15 PM,54.7,24.8,32,29.96,10.0,NW,19.6,26.5,N/A,,Clear,320,2013-01-16 20:15:00
2:35 PM,54.3,24.8,32,29.96,10.0,NW,19.6,28.8,N/A,,Clear,320,2013-01-16 20:35:00
2:55 PM,53.8,24.8,33,29.97,10.0,NW,19.6,28.8,N/A,,Clear,320,2013-01-16 20:55:00
3:15 PM,53.2,25.3,34,29.98,10.0,NNW,20.7,28.8,N/A,,Clear,330,2013-01-16 21:15:00
3:35 PM,52.7,25.2,34,29.99,10.0,NNW,19.6,23.0,N/A,,Clear,330,2013-01-16 21:35:00
3:55 PM,52.0,25.7,36,30.00,10.0,NNW,18.4,24.2,N/A,,Clear,330,2013-01-16 21:55:00
4:15 PM,51.1,25.9,38,30.01,10.0,NNW,18.4,26.5,N/A,,Clear,330,2013-01-16 22:15:00
4:35 PM,50.0,26.4,40,30.03,10.0,NW,15.0,20.7,N/A,,Clear,320,2013-01-16 22:35:00
4:55 PM,48.2,26.6,43,30.04,10.0,NW,10.4,-,N/A,,Clear,310,2013-01-16 22:55:00
5:15 PM,46.2,26.6,46,30.06,10.0,NW,9.2,-,N/A,,Clear,320,2013-01-16 23:15:00
5:35 PM,41.7,26.2,54,30.08,10.0,NNW,5.8,-,N/A,,Clear,330,2013-01-16 23:35:00
5:55 PM,43.5,27.0,52,30.09,10.0,NNW,8.1,-,N/A,,Clear,340,2013-01-16 23:55:00
6:15 PM,43.2,27.3,54,30.10,10.0,NNW,8.1,-,N/A,,Clear,340,2013-01-17 00:15:00
6:35 PM,41.9,27.5,57,30.11,10.0,North,6.9,-,N/A,,Clear,350,2013-01-17 00:35:00
6:55 PM,41.0,27.5,59,30.11,10.0,North,9.2,-,N/A,,Clear,350,2013-01-17 00:55:00
7:15 PM,41.7,28.2,59,30.12,10.0,North,12.7,16.1,N/A,,Clear,350,2013-01-17 01:15:00
7:35 PM,40.1,28.0,62,30.13,10.0,NNW,6.9,-,N/A,,Clear,330,2013-01-17 01:35:00
7:55 PM,37.9,27.7,67,30.15,10.0,North,3.5,-,N/A,,Clear,350,2013-01-17 01:55:00
8:15 PM,37.4,27.7,68,30.17,10.0,NNW,3.5,-,N/A,,Clear,330,2013-01-17 02:15:00
8:35 PM,35.4,27.5,73,30.18,10.0,Calm,Calm,-,N/A,,Clear,0,2013-01-17 02:35:00
8:55 PM,34.5,27.3,75,30.18,10.0,NNW,3.5,-,N/A,,Scattered Clouds,330,2013-01-17 02:55:00
9:15 PM,31.5,26.2,81,30.18,10.0,Calm,Calm,-,N/A,,Scattered Clouds,0,2013-01-17 03:15:00
9:35 PM,34.3,28.2,78,30.19,10.0,NNW,4.6,-,N/A,,Clear,340,2013-01-17 03:35:00
9:55 PM,32.0,27.0,82,30.20,10.0,NNW,3.5,-,N/A,,Clear,340,2013-01-17 03:55:00
10:15 PM,30.7,25.0,79,30.21,10.0,Calm,Calm,-,N/A,,Clear,0,2013-01-17 04:15:00
10:35 PM,31.1,27.1,85,30.21,10.0,North,3.5,-,N/A,,Clear,360,2013-01-17 04:35:00
10:55 PM,32.9,27.9,82,30.22,10.0,North,5.8,-,N/A,,Clear,350,2013-01-17 04:55:00
11:15 PM,32.4,27.3,82,30.22,10.0,North,6.9,-,N/A,,Clear,360,2013-01-17 05:15:00
11:35 PM,32.4,27.9,83,30.24,10.0,North,4.6,-,N/A,,Clear,10,2013-01-17 05:35:00
11:55 PM,31.1,26.8,84,30.25,10.0,North,5.8,-,N/A,,Clear,10,2013-01-17 05:55:00